Hourly Data Report for November 05, 2019

All times are specified in Local Standard Time (LST). Add 1 hour to adjust for Daylight Saving Time where and when it is observed.

QUALICUM BEACH AIRPORT
BRITISH COLUMBIA
Current Station Operator: ECCC - MSC

49°20'14.000" N
124°23'38.000" W
58.20 m
1026562
71766
VOQ

Download Data

Hourly Data (November 2019)
Hourly Data Report for November 5, 2019
TIME Temp Definition
°C
Dew Point Definition
°C
Rel Hum Definition
%
Wind Dir Definition
10's deg

Wind Spd Definition
km/h
Visibility Definition
km
Stn Press Definition
kPa
Hmdx Definition


Wind Chill Definition


Weather Definition


00:00 9.6 8.4 92 6 2   101.63     LegendNANA
01:00 9.5 8.6 94 0 1   101.63     LegendNANA
02:00 9.4 8.6 95 15 4   101.63     LegendNANA
03:00 9.3 8.6 95 10 3   101.60     LegendNANA
04:00 9.2 8.5 96 4 1   101.60     LegendNANA
05:00 9.2 8.5 96 4 2   101.63     LegendNANA
06:00 9.0 8.3 96 18 1   101.62     LegendNANA
07:00 8.9 8.3 96 29 3   101.62     LegendNANA
08:00 9.0 8.4 96 31 2   101.64     LegendNANA
09:00 9.9 9.1 95 30 5   101.65     LegendNANA
10:00 10.7 8.3 85 31 7   101.67     LegendNANA
11:00 10.8 7.9 82 32 12   101.71     LegendNANA
12:00 11.2 7.6 79 33 9   101.66     LegendNANA
13:00 11.1 7.3 77 33 11   101.65     LegendNANA
14:00 10.9 6.8 76 32 9   101.63     LegendNANA
15:00 10.6 6.7 77 33 10   101.61     LegendNANA
16:00 10.2 6.7 79 31 8   101.62     LegendNANA
17:00 9.9 6.3 78 27 5   101.59     LegendNANA
18:00 9.5 6.4 81 26 3   101.59     LegendNANA
19:00 9.5 6.7 83 30 3   101.61     LegendNANA
20:00 9.5 6.5 81 25 4   101.65     LegendNANA
21:00 9.4 6.8 84 25 4   101.68     LegendNANA
22:00 9.3 6.6 83 31 2   101.72     LegendNANA
23:00 9.2 6.8 85 28 3   101.75     LegendNANA

Notes on Data Quality.

Legend

  • E = Estimated
  • M = Missing
  • NA = Not Available
Date modified: